Greenville, ME

9:33 PM EDT on October 21, 2019 (GMT -0400)
Greenville

Weather History for KGNR - August, 2019

Change the Weather History Date:

Friday, August 30, 2019

  Actual Average (KMLT) Record (KMLT)
Temperature  
Mean Temperature 64 °F -  
Max Temperature 73 °F 73 °F 92 °F (1953)
Min Temperature 55 °F 51 °F 36 °F (1986)
Degree Days  
Heating Degree Days 1    
Growing Degree Days 14 (Base 50)    
Moisture  
Dew Point 53 °F    
Average Humidity 67    
Maximum Humidity 90    
Minimum Humidity 53    
Precipitation  
Precipitation 0.00 in - - ()
Sea Level Pressure  
Sea Level Pressure 29.89 in    
Wind  
Wind Speed 3 mph ()    
Max Wind Speed 10 mph    
Max Gust Speed 21 mph    
Averages and records for this station are not official NWS values.
T = Trace of Precipitation, MM = Missing Value Source: Averaged Metar Reports

Daily Weather History Graph

Daily Weather History Graph

Search for Another Location

Airport or City:

Astronomy

Aug. 30, 2019 Rise Set
Actual Time 5:56 AM EDT 7:20 PM EDT
Civil Twilight 5:26 AM EDT 7:50 PM EDT
Nautical Twilight 4:49 AM EDT 8:27 PM EDT
Astronomical Twilight 4:09 AM EDT 9:07 PM EDT
Moon 5:50 AM EDT (8/30) 7:55 PM EDT (8/30)
Length of Visible Light 14h 24m
Length of Day
13h 23m
New Moon, 0% of the Moon is Illuminated
Aug 30
New Moon
Sep 5
First Quarter
Sep 14
Full
Sep 21
Last Quarter
Sep 28
New

Hourly Weather History & Observations

Time (EDT) Temp. Dew Point Humidity Pressure Visibility Wind Dir Wind Speed Gust Speed Precip Events Conditions
12:56 AM 61.0 °F 54.0 °F 78% 29.87 in - Variable 3.5 mph - N/A   Unknown
1:56 AM 57.9 °F 53.1 °F 84% 29.88 in - Calm Calm - N/A   Unknown
2:56 AM 57.9 °F 53.1 °F 84% 29.87 in - Calm Calm - N/A   Unknown
3:56 AM 57.0 °F 53.1 °F 87% 29.87 in - Calm Calm - N/A   Unknown
4:56 AM 55.9 °F 53.1 °F 90% 29.87 in - Calm Calm - N/A   Unknown
5:56 AM 57.0 °F 53.1 °F 87% 29.89 in - Calm Calm - N/A   Unknown
6:56 AM 57.0 °F 54.0 °F 89% 29.89 in - Calm Calm - N/A   Unknown
7:56 AM 61.0 °F 55.0 °F 81% 29.90 in - SSW 4.6 mph - N/A   Unknown
8:56 AM 64.9 °F 55.9 °F 73% 29.89 in - South 5.8 mph - N/A   Unknown
9:56 AM 66.9 °F 55.0 °F 66% 29.88 in - Variable 4.6 mph - N/A   Unknown
10:56 AM 70.0 °F 53.1 °F 55% 29.86 in - South 10.4 mph 17.3 mph N/A   Unknown
11:56 AM 72.0 °F 54.0 °F 53% 29.86 in - South 8.1 mph 16.1 mph N/A   Unknown
12:56 PM 70.0 °F 53.1 °F 55% 29.84 in - SSW 4.6 mph - N/A   Unknown
1:56 PM 73.0 °F 57.0 °F 57% 29.85 in - South 8.1 mph - N/A   Unknown
2:56 PM 73.0 °F 55.9 °F 55% 29.86 in - SSW 8.1 mph - N/A   Unknown
3:56 PM 73.9 °F 57.0 °F 55% 29.86 in - Variable 5.8 mph 20.7 mph N/A   Unknown
4:56 PM 73.9 °F 57.0 °F 55% 29.86 in - Variable 5.8 mph - N/A   Unknown
5:56 PM 73.0 °F 55.0 °F 53% 29.86 in - Variable 3.5 mph - N/A   Unknown
6:56 PM 69.1 °F 53.1 °F 57% 29.89 in - Variable 3.5 mph - N/A   Unknown
7:56 PM 66.9 °F 53.1 °F 61% 29.93 in - NW 10.4 mph 19.6 mph N/A   Unknown
8:56 PM 64.0 °F 51.1 °F 63% 29.96 in - WNW 9.2 mph 16.1 mph N/A   Unknown
9:56 PM 63.0 °F 46.0 °F 54% 29.98 in - WNW 8.1 mph - N/A   Unknown
10:56 PM 62.1 °F 46.0 °F 56% 29.99 in - WNW 6.9 mph 16.1 mph N/A   Unknown
11:56 PM 61.0 °F 46.0 °F 58% 30.00 in - WNW 6.9 mph - N/A   Unknown